Regional Weather Roundup
Issued by NWS

Home | Current Version | Previous Version | Graphics & Text | Print | Product List | Glossary Off
Versions: 1 2 3 4 5 6 7 8 9 10 11 12 13 14 15 16 17 18 19 20 21 22 23 24 25 26 27 28 29 30 31 32 33 34 35 36 37 38 39 40 41 42 43 44 45 46 47 48 49 50

492
ASUS43 KFSD 222010
RWRSD

WEATHER ROUNDUP FOR SOUTH DAKOTA
NATIONAL WEATHER SERVICE SIOUX FALLS SD
200 PM CST WED FEB 22 2017

NOTE: "FAIR" INDICATES FEW OR NO CLOUDS BELOW 12,000 FEET WITH NO
SIGNIFICANT WEATHER AND/OR OBSTRUCTIONS TO VISIBILITY.


SDZ001>005-009-010-012>017-222100-
NORTHWEST AND NORTH CENTRAL SOUTH DAKOTA

CITY           SKY/WX    TMP DP  RH WIND       PRES   REMARKS
BUFFALO          N/A     35  31  85 N17       29.76R WCI  25
FAITH            N/A     37  35  92 N18       29.79R
MOBRIDGE       LGT RAIN  38  32  79 N12       29.75R
$$

SDZ012>016-024>037-041>051-057-063-072>074-222100-
SOUTHWEST AND SOUTH CENTRAL SOUTH DAKOTA

CITY           SKY/WX    TMP DP  RH WIND       PRES   REMARKS
RAPID CTY ARPT SUNNY     57  18  21 NW25G32   29.74F
PIERRE         SUNNY     54  38  54 N22       29.72F
CUSTER         SUNNY     43  17  35 NW14      29.77F
ELLSWORTH AFB  SUNNY     55  22  27 NW22G30   29.73F
PHILIP         MOSUNNY   56  30  37 N22G32    29.73F
PINE RIDGE     SUNNY     57  23  26 W13G22    29.76F
SPEARFISH      FAIR      46  23  39 NW24G31   29.79F
WINNER         FAIR      58  33  39 N16G23    29.73F
$$

SDZ004>011-016>023-039-040-222100-
NORTHEAST SOUTH DAKOTA

CITY           SKY/WX    TMP DP  RH WIND       PRES   REMARKS
ABERDEEN       CLOUDY    40  35  83 N21       29.73R
WATERTOWN      SUNNY     45  38  76 N16       29.64R
BROOKINGS      MOSUNNY   50  43  77 NW17      29.62R
SISSETON         N/A     39  37  92 N21       29.66R
$$

SDZ017-020-022-023-036>040-048>070-222100-
SOUTHEAST SOUTH DAKOTA

CITY           SKY/WX    TMP DP  RH WIND       PRES   REMARKS
SIOUX FALLS    MOSUNNY   62  42  47 W18G29    29.62R
HURON          SUNNY     53  40  61 NW21G28   29.68R
CHAMBERLAIN    SUNNY     58  40  51 NW17      29.72S
MITCHELL       SUNNY     57  41  55 N23G30    29.68R
YANKTON        SUNNY    N/A N/A N/A W28       29.63F
$$

ABBREVIATIONS USED IN REMARKS
   TC - TEMPERATURE IN CELSIUS
  WCI - WIND CHILL INDEX
   HX - HEAT INDEX
  VSB - VISIBILITY





USA.gov is the U.S. government's official web portal to all federal, state and local government web resources and services.